Location: Dob?e?
(49.9411°N, 15.1496°E)
Time: 20:27:10
(UTC+00:00)

DELFI C3 - Pass Details

Date: 01 November 2021
Orbit: 529 x 543 km, 97.4° (Epoch: 04 December)

Event Time Altitude Azimuth Distance (km) Brightness Sun altitude
Exits shadow 17:26:14 32° 42° (NE) 924 ? -18.1°
Drops below altitude 10° 17:29:01 10° 2° (N) 1,793 ? -18.5°
Sets 17:31:15 0° 354° (N) 2,690 ? -18.9°
